DW7918 Weather Reports


Display with metric or nautical units.
time (UTC)temp
F
wind
direction
speed
MPH
gust
MPH
rain 1hr
in
rain 24hr
in
rain mn
in
humidity
%
barometer
mb
20260503185824 60 307 10.0 17.0 0.00 0.00 0.00 37 1011.2
20260503185603 61 310 10.0 18.0 0.00 0.00 0.00 34 1011.1
20260503185403 61 308 9.0 18.0 0.00 0.00 0.00 37 1011.2
20260503185224 61 310 9.0 18.0 0.00 0.00 0.00 37 1011.2
20260503185003 61 313 9.0 18.0 0.00 0.00 0.00 35 1011.2
20260503184824 61 314 9.0 18.0 0.00 0.00 0.00 34 1011.2
20260503184603 61 312 9.0 20.0 0.00 0.00 0.00 34 1011.2
20260503184403 61 313 9.0 20.0 0.00 0.00 0.00 37 1011.2
20260503184203 61 314 8.0 20.0 0.00 0.00 0.00 37 1011.3
20260503184003 61 314 8.0 20.0 0.00 0.00 0.00 34 1011.3
20260503183824 61 313 8.0 20.0 0.00 0.00 0.00 37 1011.3
20260503183603 61 314 8.0 16.0 0.00 0.00 0.00 37 1011.3
20260503183403 60 313 10.0 18.0 0.00 0.00 0.00 37 1011.2
20260503183203 61 309 10.0 21.0 0.00 0.00 0.00 34 1011.3
20260503183003 61 306 11.0 21.0 0.00 0.00 0.00 33 1011.3
20260503182803 61 306 12.0 21.0 0.00 0.00 0.00 33 1011.4
20260503182603 62 306 12.0 21.0 0.00 0.00 0.00 35 1011.6
20260503182403 62 306 12.0 21.0 0.00 0.00 0.00 36 1011.5
20260503182203 62 305 11.0 18.0 0.00 0.00 0.00 35 1011.5
20260503182004 62 307 11.0 18.0 0.00 0.00 0.00 35 1011.5
20260503181803 62 310 11.0 18.0 0.00 0.00 0.00 36 1011.5
20260503181624 61 310 11.0 18.0 0.00 0.00 0.00 36 1011.5
20260503181403 62 310 10.0 18.0 0.00 0.00 0.00 34 1011.6
20260503181203 61 311 10.0 18.0 0.00 0.00 0.00 37 1011.6
20260503181003 61 310 10.0 18.0 0.00 0.00 0.00 37 1011.6
20260503180803 61 308 10.0 18.0 0.00 0.00 0.00 35 1011.7
20260503180603 61 310 10.0 16.0 0.00 0.00 0.00 36 1011.8
20260503180403 61 315 11.0 20.0 0.00 0.00 0.00 34 1011.9
20260503180203 61 316 11.0 20.0 0.00 0.00 0.00 36 1011.9
20260503180004 60 315 12.0 22.0 0.00 0.00 0.00 35 1012.0
20260503175824 60 315 12.0 22.0 0.00 0.00 0.00 35 1011.9
20260503175603 60 311 13.0 22.0 0.00 0.00 0.00 34 1012.1
20260503175403 60 308 13.0 22.0 0.00 0.00 0.00 34 1012.2
20260503175203 60 306 13.0 22.0 0.00 0.00 0.00 33 1012.2
20260503175003 60 308 12.0 21.0 0.00 0.00 0.00 36 1012.2
20260503174824 60 310 12.0 21.0 0.00 0.00 0.00 36 1012.3
20260503174603 60 312 10.0 21.0 0.00 0.00 0.00 35 1012.3
20260503174403 60 316 9.0 21.0 0.00 0.00 0.00 37 1012.2
20260503174203 60 321 8.0 19.0 0.00 0.00 0.00 35 1012.2
20260503174003 60 317 9.0 19.0 0.00 0.00 0.00 38 1012.2
20260503173824 60 312 9.0 19.0 0.00 0.00 0.00 36 1012.4
20260503173603 60 311 9.0 19.0 0.00 0.00 0.00 37 1012.4
20260503173403 59 309 9.0 19.0 0.00 0.00 0.00 38 1012.4
20260503173203 59 307 10.0 18.0 0.00 0.00 0.00 38 1012.4
20260503173003 59 308 10.0 19.0 0.00 0.00 0.00 38 1012.5
20260503172803 58 310 10.0 19.0 0.00 0.00 0.00 39 1012.6
20260503172603 58 312 11.0 19.0 0.00 0.00 0.00 38 1012.5
20260503172403 58 312 11.0 19.0 0.00 0.00 0.00 37 1012.7
20260503172203 58 312 11.0 19.0 0.00 0.00 0.00 37 1012.7
20260503172003 58 311 10.0 18.0 0.00 0.00 0.00 37 1012.7
20260503171803 58 312 10.0 19.0 0.00 0.00 0.00 38 1012.7
20260503171603 58 308 10.0 19.0 0.00 0.00 0.00 39 1012.7
20260503171403 58 306 10.0 19.0 0.00 0.00 0.00 39 1012.9
20260503171203 58 307 10.0 19.0 0.00 0.00 0.00 39 1012.9
20260503171003 58 309 10.0 19.0 0.00 0.00 0.00 39 1012.9
20260503170824 58 308 11.0 19.0 0.00 0.00 0.00 37 1012.9
20260503170603 58 310 10.0 17.0 0.00 0.00 0.00 37 1012.9
20260503170424 58 310 11.0 17.0 0.00 0.00 0.00 39 1013.0
20260503170203 58 309 11.0 18.0 0.00 0.00 0.00 38 1013.0
20260503160203 56 307 8.0 14.0 0.00 0.00 0.00 44 1013.4
20260503151003 53 305 7.0 13.0 0.00 0.00 0.00 42 1014.0
20260503150824 53 305 7.0 13.0 0.00 0.00 0.00 41 1014.0
20260503150603 53 306 8.0 14.0 0.00 0.00 0.00 42 1014.0
20260503150424 53 306 8.0 14.0 0.00 0.00 0.00 42 1014.0
20260503150224 53 307 8.0 14.0 0.00 0.00 0.00 45 1014.0
20260503140203 51 307 6.0 10.0 0.00 0.00 0.00 44 1014.2
20260503131203 46 303 5.0 7.0 0.00 0.00 0.00 53 1014.4
20260503131003 46 304 4.0 7.0 0.00 0.00 0.00 52 1014.4
20260503130803 46 306 5.0 7.0 0.00 0.00 0.00 52 1014.4
20260503130624 46 306 5.0 7.0 0.00 0.00 0.00 53 1014.4
20260503130403 46 305 5.0 9.0 0.00 0.00 0.00 53 1014.3
20260503130203 46 305 5.0 9.0 0.00 0.00 0.00 53 1014.3
20260503110803 38 300 2.0 4.0 0.00 0.00 0.00 60 1014.1
20260503110625 38 300 2.0 3.0 0.00 0.00 0.00 61 1014.0
20260503110424 38 300 2.0 3.0 0.00 0.00 0.00 61 1014.1
20260503110203 38 303 2.0 3.0 0.00 0.00 0.00 61 1014.1
20260503100224 38 298 2.0 4.0 0.00 0.00 0.00 60 1014.1
20260503090403 37 297 2.0 4.0 0.00 0.00 0.00 59 1014.3
20260503090203 37 297 2.0 4.0 0.00 0.00 0.00 59 1014.4
20260503081603 37 296 2.0 3.0 0.00 0.00 0.00 58 1014.5
20260503081424 37 296 2.0 3.0 0.00 0.00 0.00 58 1014.5
20260503081203 37 296 1.0 3.0 0.00 0.00 0.00 58 1014.5
20260503081003 37 295 1.0 2.0 0.00 0.00 0.00 58 1014.4
20260503080824 37 295 1.0 3.0 0.00 0.00 0.00 58 1014.4
20260503080624 37 294 1.0 3.0 0.00 0.00 0.00 58 1014.5
20260503080403 37 293 1.0 3.0 0.00 0.00 0.00 59 1014.5
20260503080203 37 293 0.0 3.0 0.00 0.00 0.00 59 1014.5
20260503072805 38 0 0.0 0.0 0.00 0.00 0.00 56 1014.6
20260503072605 38 0 0.0 0.0 0.00 0.00 0.00 56 1014.7
20260503072405 38 0 0.0 0.0 0.00 0.00 0.00 56 1014.7
20260503072205 38 0 0.0 0.0 0.00 0.00 0.00 57 1014.7
20260503072005 38 0 0.0 0.0 0.00 0.00 0.00 56 1014.7
20260503071805 38 0 0.0 0.0 0.00 0.00 0.00 56 1014.7
20260503071605 38 0 0.0 0.0 0.00 0.00 0.00 57 1014.7
20260503071405 38 0 0.0 0.0 0.00 0.00 0.00 57 1014.7
20260503071226 38 0 0.0 0.0 0.00 0.00 0.00 57 1014.8
20260503071005 38 0 0.0 0.0 0.00 0.00 0.00 57 1014.8
20260503070805 38 0 0.0 0.0 0.00 0.00 0.00 57 1014.8
20260503070605 38 0 0.0 0.0 0.00 0.00 0.00 57 1014.8
20260503070426 38 0 0.0 0.0 0.00 0.00 0.00 57 1014.8
20260503070205 38 0 0.0 0.0 0.00 0.00 0.00 57 1014.8
20260503060205 37 0 0.0 0.0 0.00 0.00 0.00 58 1015.5
20260503055005 37 0 0.0 0.0 0.00 0.00 0.00 60 1015.7
20260503054805 36 0 0.0 0.0 0.00 0.00 0.00 60 1015.7
20260503054605 36 0 0.0 0.0 0.00 0.00 0.00 60 1015.7
20260503054426 36 0 0.0 0.0 0.00 0.00 0.00 61 1015.8
20260503054205 36 0 0.0 0.0 0.00 0.00 0.00 62 1015.8
20260503054005 36 0 0.0 0.0 0.00 0.00 0.00 62 1015.7
20260503053804 36 0 0.0 0.0 0.00 0.00 0.00 63 1015.8
20260503053605 36 0 0.0 0.0 0.00 0.00 0.00 63 1015.8
20260503053405 36 0 0.0 0.0 0.00 0.00 0.00 63 1015.8
20260503053205 36 0 0.0 0.0 0.00 0.00 0.00 64 1015.9
20260503053005 36 0 0.0 0.0 0.00 0.00 0.00 64 1015.9
20260503052805 36 0 0.0 0.0 0.00 0.00 0.00 64 1015.9
20260503052604 36 0 0.0 0.0 0.00 0.00 0.00 64 1015.9
20260503052426 36 0 0.0 0.0 0.00 0.00 0.00 63 1015.9
20260503052205 36 0 0.0 0.0 0.00 0.00 0.00 63 1015.9
20260503052005 36 0 0.0 0.0 0.00 0.00 0.00 63 1015.9
20260503051805 36 0 0.0 0.0 0.00 0.00 0.00 63 1015.9
20260503051626 36 0 0.0 0.0 0.00 0.00 0.00 63 1015.9
20260503051405 36 0 0.0 0.0 0.00 0.00 0.00 63 1015.9
20260503051226 36 0 0.0 0.0 0.00 0.00 0.00 63 1016.0
20260503051026 36 0 0.0 0.0 0.00 0.00 0.00 63 1016.0
20260503050826 36 0 0.0 0.0 0.00 0.00 0.00 63 1016.0
20260503050604 36 0 0.0 0.0 0.00 0.00 0.00 63 1016.1
20260503050405 37 0 0.0 0.0 0.00 0.00 0.00 63 1016.0
20260503050205 37 0 0.0 0.0 0.00 0.00 0.00 62 1016.0
20260503050005 37 0 0.0 0.0 0.00 0.00 0.00 62 1016.0
20260503045805 37 0 0.0 0.0 0.00 0.00 0.00 62 1016.1
20260503045605 37 0 0.0 0.0 0.00 0.00 0.00 62 1016.1
20260503045405 37 0 0.0 0.0 0.00 0.00 0.00 62 1016.1
20260503045204 37 0 0.0 0.0 0.00 0.00 0.00 62 1016.1
20260503045004 37 0 0.0 0.0 0.00 0.00 0.00 62 1016.1
20260503044826 37 0 0.0 0.0 0.00 0.00 0.00 62 1016.1
20260503044604 37 0 0.0 0.0 0.00 0.00 0.00 62 1016.1
20260503044404 37 0 0.0 0.0 0.00 0.00 0.00 62 1016.0
20260503044204 37 0 0.0 0.0 0.00 0.00 0.00 62 1016.0
20260503044005 37 0 0.0 0.0 0.00 0.00 0.00 62 1016.0
20260503043804 37 0 0.0 0.0 0.00 0.00 0.00 62 1016.1
20260503043605 37 0 0.0 0.0 0.00 0.00 0.00 62 1016.1
20260503043404 36 0 0.0 0.0 0.00 0.00 0.00 62 1016.1
20260503043204 36 0 0.0 0.0 0.00 0.00 0.00 62 1016.1
20260503043004 36 0 0.0 0.0 0.00 0.00 0.00 62 1016.1
20260503042804 36 0 0.0 0.0 0.00 0.00 0.00 62 1016.1
20260503042626 36 0 0.0 0.0 0.00 0.00 0.00 62 1016.1
20260503042404 36 0 0.0 0.0 0.00 0.00 0.00 62 1016.1
20260503042205 36 0 0.0 0.0 0.00 0.00 0.00 61 1016.2
20260503042004 37 0 0.0 0.0 0.00 0.00 0.00 61 1016.2
20260503041804 37 0 0.0 0.0 0.00 0.00 0.00 62 1016.2
20260503041625 37 0 0.0 0.0 0.00 0.00 0.00 62 1016.2
20260503041404 37 0 0.0 0.0 0.00 0.00 0.00 62 1016.2
20260503041204 37 0 0.0 0.0 0.00 0.00 0.00 62 1016.3
20260503041025 37 0 0.0 0.0 0.00 0.00 0.00 62 1016.3
20260503040804 37 0 0.0 0.0 0.00 0.00 0.00 62 1016.3
20260503040604 36 0 0.0 0.0 0.00 0.00 0.00 62 1016.3
20260503040404 36 0 0.0 0.0 0.00 0.00 0.00 62 1016.3
20260503040204 36 0 0.0 0.0 0.00 0.00 0.00 62 1016.4
20260503040005 36 0 0.0 0.0 0.00 0.00 0.00 62 1016.4
20260503035804 36 0 0.0 0.0 0.00 0.00 0.00 61 1016.3
20260503035625 36 0 0.0 0.0 0.00 0.00 0.00 61 1016.3
20260503035425 37 0 0.0 0.0 0.00 0.00 0.00 61 1016.3
20260503035204 37 0 0.0 0.0 0.00 0.00 0.00 60 1016.3
20260503035004 37 0 0.0 0.0 0.00 0.00 0.00 61 1016.3
20260503034804 37 0 0.0 0.0 0.00 0.00 0.00 61 1016.3
20260503034604 37 0 0.0 0.0 0.00 0.00 0.00 61 1016.3
20260503034404 37 0 0.0 0.0 0.00 0.00 0.00 61 1016.4
20260503034225 37 0 0.0 0.0 0.00 0.00 0.00 61 1016.4
20260503034004 37 0 0.0 0.0 0.00 0.00 0.00 61 1016.4
20260503033825 37 0 0.0 0.0 0.00 0.00 0.00 60 1016.4
20260503033604 37 0 0.0 0.0 0.00 0.00 0.00 60 1016.4
20260503033425 37 0 0.0 0.0 0.00 0.00 0.00 59 1016.4
20260503033204 38 0 0.0 0.0 0.00 0.00 0.00 59 1016.4
20260503033004 38 0 0.0 0.0 0.00 0.00 0.00 59 1016.4
20260503032804 38 0 0.0 0.0 0.00 0.00 0.00 60 1016.4
20260503032604 38 0 0.0 0.0 0.00 0.00 0.00 60 1016.4
20260503032425 38 0 0.0 0.0 0.00 0.00 0.00 60 1016.5
20260503032204 38 0 0.0 0.0 0.00 0.00 0.00 60 1016.5
20260503032025 38 0 0.0 0.0 0.00 0.00 0.00 59 1016.5
20260503031825 38 0 0.0 0.0 0.00 0.00 0.00 59 1016.5
20260503031625 38 0 0.0 0.0 0.00 0.00 0.00 59 1016.5
20260503031425 38 0 0.0 0.0 0.00 0.00 0.00 59 1016.6
20260503031204 38 0 0.0 0.0 0.00 0.00 0.00 58 1016.6
20260503031004 38 0 0.0 0.0 0.00 0.00 0.00 58 1016.6
20260503030804 38 0 0.0 0.0 0.00 0.00 0.00 58 1016.6
20260503030604 38 0 0.0 0.0 0.00 0.00 0.00 58 1016.6
20260503030404 38 0 0.0 0.0 0.00 0.00 0.00 57 1016.6
20260503030204 38 0 0.0 0.0 0.00 0.00 0.00 57 1016.6
20260503030004 38 0 0.0 0.0 0.00 0.00 0.00 58 1016.7
20260503025804 38 0 0.0 0.0 0.00 0.00 0.00 58 1016.6
20260503025604 38 0 0.0 0.0 0.00 0.00 0.00 58 1016.6
20260503025404 38 0 0.0 0.0 0.00 0.00 0.00 58 1016.6
20260503025204 38 0 0.0 0.0 0.00 0.00 0.00 59 1016.7
20260503025004 38 0 0.0 0.0 0.00 0.00 0.00 59 1016.7
20260503024804 38 0 0.0 0.0 0.00 0.00 0.00 59 1016.7
20260503024604 39 0 0.0 0.0 0.00 0.00 0.00 59 1016.7
20260503024404 39 0 0.0 0.0 0.00 0.00 0.00 58 1016.7
20260503024225 39 0 0.0 0.0 0.00 0.00 0.00 58 1016.7
20260503024004 39 0 0.0 0.0 0.00 0.00 0.00 57 1016.8
20260503023825 39 0 0.0 0.0 0.00 0.00 0.00 57 1016.7
20260503023604 39 0 0.0 0.0 0.00 0.00 0.00 57 1016.8
20260503023425 39 0 0.0 0.0 0.00 0.00 0.00 57 1016.8
20260503023204 39 0 0.0 0.0 0.00 0.00 0.00 56 1016.7
20260503023004 39 0 0.0 0.0 0.00 0.00 0.00 55 1016.8
20260503022825 39 0 0.0 0.0 0.00 0.00 0.00 55 1016.8
20260503022604 40 0 0.0 0.0 0.00 0.00 0.00 55 1016.8
20260503022425 40 0 0.0 0.0 0.00 0.00 0.00 55 1016.8
20260503022204 40 0 0.0 0.0 0.00 0.00 0.00 55 1016.8
20260503022004 40 0 0.0 0.0 0.00 0.00 0.00 55 1016.8
20260503021804 40 0 0.0 0.0 0.00 0.00 0.00 55 1016.8
20260503021604 40 0 0.0 0.0 0.00 0.00 0.00 54 1016.8
20260503021404 40 0 0.0 0.0 0.00 0.00 0.00 53 1016.8
20260503021204 40 0 0.0 0.0 0.00 0.00 0.00 53 1016.8
20260503021025 40 0 0.0 0.0 0.00 0.00 0.00 55 1016.7
20260503020825 40 0 0.0 0.0 0.00 0.00 0.00 55 1016.7
20260503020604 40 0 0.0 0.0 0.00 0.00 0.00 56 1016.7
20260503020404 40 0 0.0 0.0 0.00 0.00 0.00 56 1016.7
20260503020225 40 0 0.0 0.0 0.00 0.00 0.00 56 1016.7
20260503020004 40 0 0.0 0.0 0.00 0.00 0.00 53 1016.7
20260503015804 41 0 0.0 0.0 0.00 0.00 0.00 52 1016.7
20260503015604 41 0 0.0 0.0 0.00 0.00 0.00 53 1016.7
20260503015404 41 0 0.0 0.0 0.00 0.00 0.00 52 1016.7
20260503015204 41 0 0.0 0.0 0.00 0.00 0.00 51 1016.7
20260503015004 41 0 0.0 0.0 0.00 0.00 0.00 51 1016.6
20260503014804 41 0 0.0 0.0 0.00 0.00 0.00 51 1016.7
20260503014604 41 0 0.0 0.0 0.00 0.00 0.00 53 1016.6
20260503014404 41 0 0.0 0.0 0.00 0.00 0.00 53 1016.6
20260503014225 41 0 0.0 0.0 0.00 0.00 0.00 52 1016.6
20260503014004 41 0 0.0 0.0 0.00 0.00 0.00 51 1016.5
20260503013804 41 0 0.0 0.0 0.00 0.00 0.00 52 1016.5
20260503013604 41 0 0.0 0.0 0.00 0.00 0.00 52 1016.5
20260503013404 41 0 0.0 0.0 0.00 0.00 0.00 52 1016.5
20260503013225 42 0 0.0 0.0 0.00 0.00 0.00 52 1016.5
20260503013004 42 0 0.0 0.0 0.00 0.00 0.00 51 1016.5
20260503012825 42 0 0.0 0.0 0.00 0.00 0.00 52 1016.5
20260503012625 42 0 0.0 0.0 0.00 0.00 0.00 53 1016.5
20260503012425 42 0 0.0 0.0 0.00 0.00 0.00 52 1016.5
20260503012225 42 0 0.0 0.0 0.00 0.00 0.00 52 1016.5
20260503012004 42 0 0.0 0.0 0.00 0.00 0.00 51 1016.5
20260503011804 43 0 0.0 0.0 0.00 0.00 0.00 49 1016.5
20260503011604 43 0 0.0 0.0 0.00 0.00 0.00 48 1016.4
20260503011425 43 0 0.0 0.0 0.00 0.00 0.00 48 1016.5
20260503011204 43 0 0.0 0.0 0.00 0.00 0.00 45 1016.4
20260503011004 43 0 0.0 0.0 0.00 0.00 0.00 45 1016.4
20260503010804 43 0 0.0 0.0 0.00 0.00 0.00 44 1016.4
20260503010604 42 0 0.0 0.0 0.00 0.00 0.00 42 1016.4
20260503010404 42 0 0.0 0.0 0.00 0.00 0.00 43 1016.5
20260503010204 42 0 0.0 0.0 0.00 0.00 0.00 43 1016.4
20260503010004 42 0 0.0 0.0 0.00 0.00 0.00 44 1016.4
20260503005804 42 0 0.0 0.0 0.00 0.00 0.00 43 1016.5
20260503005604 42 0 0.0 0.0 0.00 0.00 0.00 43 1016.4
20260503005404 42 0 0.0 0.0 0.00 0.00 0.00 45 1016.4
20260503005225 42 0 0.0 0.0 0.00 0.00 0.00 43 1016.4
20260503005004 42 0 0.0 0.0 0.00 0.00 0.00 43 1016.4
20260503004825 42 0 0.0 0.0 0.00 0.00 0.00 46 1016.4
20260503004604 43 0 0.0 0.0 0.00 0.00 0.00 49 1016.4
20260503004404 43 0 0.0 0.0 0.00 0.00 0.00 48 1016.3
20260503004204 43 0 0.0 0.0 0.00 0.00 0.00 45 1016.3
20260503004004 44 0 0.0 0.0 0.00 0.00 0.00 44 1016.4
20260503003804 44 0 0.0 0.0 0.00 0.00 0.00 46 1016.3
20260503003604 44 0 0.0 0.0 0.00 0.00 0.00 44 1016.3
20260503003404 45 58 0.0 3.0 0.00 0.00 0.00 42 1016.3
20260503003225 45 58 0.0 3.0 0.00 0.00 0.00 41 1016.3
20260503003004 45 58 0.0 3.0 0.00 0.00 0.00 42 1016.3
20260503002804 46 58 0.0 3.0 0.00 0.00 0.00 39 1016.3
20260503002604 46 58 0.0 3.0 0.00 0.00 0.00 37 1016.3
20260503002404 46 0 0.0 0.0 0.00 0.00 0.00 38 1016.3
20260503002225 46 352 0.0 3.0 0.00 0.00 0.00 38 1016.3
20260503002004 47 43 0.0 3.0 0.00 0.00 0.00 37 1016.3
20260503001825 47 68 1.0 3.0 0.00 0.00 0.00 37 1016.3
20260503001604 47 77 1.0 5.0 0.00 0.00 0.00 35 1016.3
20260503001425 47 59 2.0 5.0 0.00 0.00 0.00 34 1016.3
20260503001204 47 59 2.0 5.0 0.00 0.00 0.00 34 1016.3
20260503001004 48 51 3.0 5.0 0.00 0.00 0.00 34 1016.3
20260503000804 48 40 3.0 5.0 0.00 0.00 0.00 33 1016.3
20260503000604 48 40 3.0 5.0 0.00 0.00 0.00 31 1016.3
20260503000404 48 65 3.0 6.0 0.00 0.00 0.00 31 1016.3
20260503000204 48 78 3.0 6.0 0.00 0.00 0.00 31 1016.4
20260503000004 48 93 2.0 6.0 0.00 0.00 0.00 35 1016.3
20260502235804 48 104 2.0 6.0 0.00 0.00 0.00 31 1016.3
20260502235604 48 105 2.0 6.0 0.00 0.00 0.00 28 1016.4
20260502235404 49 106 2.0 6.0 0.00 0.00 0.00 30 1016.4
20260502235204 49 103 2.0 6.0 0.00 0.00 0.00 33 1016.4
20260502235004 49 103 2.0 6.0 0.00 0.00 0.00 34 1016.4
20260502234804 49 98 3.0 8.0 0.00 0.00 0.00 32 1016.3
20260502234604 49 92 3.0 9.0 0.00 0.00 0.00 30 1016.3
20260502234404 49 88 3.0 9.0 0.00 0.00 0.00 30 1016.3
20260502234204 49 83 3.0 9.0 0.00 0.00 0.00 31 1016.3
20260502234004 49 70 3.0 9.0 0.00 0.00 0.00 28 1016.3
20260502233804 49 56 3.0 9.0 0.00 0.00 0.00 30 1016.4
20260502233604 49 55 3.0 5.0 0.00 0.00 0.00 30 1016.4
20260502233404 49 40 3.0 8.0 0.00 0.00 0.00 30 1016.4
20260502233204 49 26 4.0 8.0 0.00 0.00 0.00 28 1016.3
20260502233004 49 31 4.0 8.0 0.00 0.00 0.00 28 1016.4
20260502232804 49 35 3.0 8.0 0.00 0.00 0.00 26 1016.4
20260502232604 49 38 3.0 8.0 0.00 0.00 0.00 28 1016.4
20260502232404 49 46 3.0 8.0 0.00 0.00 0.00 28 1016.5
20260502232204 49 46 3.0 10.0 0.00 0.00 0.00 28 1016.4
20260502232004 49 37 4.0 10.0 0.00 0.00 0.00 28 1016.4
20260502231804 49 24 4.0 10.0 0.00 0.00 0.00 27 1016.5
20260502231604 49 14 4.0 10.0 0.00 0.00 0.00 30 1016.5
20260502231425 49 12 4.0 10.0 0.00 0.00 0.00 30 1016.5
20260502231204 49 15 4.0 9.0 0.00 0.00 0.00 31 1016.5
20260502231004 49 22 4.0 9.0 0.00 0.00 0.00 27 1016.5
20260502230804 49 22 5.0 8.0 0.00 0.00 0.00 31 1016.5
20260502230604 49 20 5.0 9.0 0.00 0.00 0.00 30 1016.5
20260502230425 49 22 5.0 9.0 0.00 0.00 0.00 30 1016.6
20260502230204 49 20 6.0 11.0 0.00 0.00 0.00 31 1016.5
20260502230004 49 15 5.0 11.0 0.00 0.00 0.00 32 1016.6
20260502225804 49 22 5.0 11.0 0.00 0.00 0.00 29 1016.6
20260502225604 50 22 5.0 11.0 0.00 0.00 0.00 30 1016.6
20260502225404 50 22 5.0 11.0 0.00 0.00 0.00 29 1016.5
20260502225204 50 24 4.0 10.0 0.00 0.00 0.00 31 1016.5
20260502225004 50 35 4.0 10.0 0.00 0.00 0.00 31 1016.6
20260502224825 50 38 4.0 10.0 0.00 0.00 0.00 31 1016.5
20260502224604 50 67 5.0 11.0 0.00 0.00 0.00 30 1016.5
20260502224425 49 71 5.0 11.0 0.00 0.00 0.00 30 1016.5
20260502224204 49 74 5.0 11.0 0.00 0.00 0.00 29 1016.5
20260502224004 50 65 5.0 11.0 0.00 0.00 0.00 29 1016.5
20260502223804 50 54 5.0 11.0 0.00 0.00 0.00 26 1016.6
20260502223604 50 49 5.0 9.0 0.00 0.00 0.00 28 1016.5
20260502223404 50 53 5.0 9.0 0.00 0.00 0.00 30 1016.5
20260502223204 50 64 5.0 10.0 0.00 0.00 0.00 30 1016.6
20260502223004 50 67 5.0 10.0 0.00 0.00 0.00 28 1016.6
20260502222804 50 71 5.0 10.0 0.00 0.00 0.00 27 1016.5
20260502222604 50 66 4.0 10.0 0.00 0.00 0.00 31 1016.6
20260502222425 50 65 4.0 10.0 0.00 0.00 0.00 30 1016.6
20260502222204 50 61 4.0 9.0 0.00 0.00 0.00 33 1016.6
20260502222004 50 71 4.0 11.0 0.00 0.00 0.00 30 1016.6
20260502221804 50 81 4.0 11.0 0.00 0.00 0.00 32 1016.6
20260502221604 50 78 5.0 11.0 0.00 0.00 0.00 32 1016.5
20260502221404 50 70 5.0 11.0 0.00 0.00 0.00 28 1016.6
20260502221225 50 49 5.0 11.0 0.00 0.00 0.00 29 1016.6
20260502221004 50 24 5.0 10.0 0.00 0.00 0.00 30 1016.6
20260502220804 50 6 5.0 10.0 0.00 0.00 0.00 32 1016.6
20260502220625 50 353 5.0 10.0 0.00 0.00 0.00 31 1016.5
20260502220404 50 357 6.0 13.0 0.00 0.00 0.00 29 1016.5
20260502220225 50 7 5.0 13.0 0.00 0.00 0.00 29 1016.5
20260502220004 50 11 5.0 13.0 0.00 0.00 0.00 35 1016.5
20260502215804 50 18 5.0 13.0 0.00 0.00 0.00 30 1016.6
20260502215604 50 34 5.0 13.0 0.00 0.00 0.00 32 1016.5
20260502215404 50 31 5.0 11.0 0.00 0.00 0.00 32 1016.5
20260502215204 50 29 5.0 11.0 0.00 0.00 0.00 31 1016.5
20260502215004 50 39 6.0 11.0 0.00 0.00 0.00 29 1016.5
20260502214804 50 42 6.0 12.0 0.00 0.00 0.00 32 1016.6
20260502214604 50 48 6.0 12.0 0.00 0.00 0.00 33 1016.6
20260502214404 50 62 5.0 12.0 0.00 0.00 0.00 33 1016.5
20260502214225 49 73 6.0 12.0 0.00 0.00 0.00 33 1016.5
20260502214004 49 69 5.0 14.0 0.00 0.00 0.00 32 1016.5
20260502213804 49 66 5.0 14.0 0.00 0.00 0.00 32 1016.6
20260502213604 49 52 5.0 14.0 0.00 0.00 0.00 33 1016.6
20260502213404 50 34 5.0 14.0 0.00 0.00 0.00 34 1016.6
20260502213204 50 27 5.0 12.0 0.00 0.00 0.00 36 1016.6
20260502213004 50 30 6.0 12.0 0.00 0.00 0.00 37 1016.5
20260502212804 50 43 7.0 12.0 0.00 0.00 0.00 33 1016.5
20260502212625 50 40 6.0 12.0 0.00 0.00 0.00 33 1016.6
20260502212404 50 47 6.0 11.0 0.00 0.00 0.00 32 1016.6
20260502212204 50 40 6.0 12.0 0.00 0.00 0.00 34 1016.5
20260502212004 50 38 5.0 12.0 0.00 0.00 0.00 36 1016.5
20260502211804 50 33 5.0 12.0 0.00 0.00 0.00 34 1016.5
20260502211604 50 35 6.0 12.0 0.00 0.00 0.00 34 1016.6
20260502211425 50 32 6.0 12.0 0.00 0.00 0.00 33 1016.5
20260502211204 50 32 6.0 14.0 0.00 0.00 0.00 34 1016.5
20260502211004 49 25 7.0 14.0 0.00 0.00 0.00 37 1016.5
20260502210804 49 13 7.0 14.0 0.00 0.00 0.00 35 1016.6
20260502210604 50 10 7.0 14.0 0.00 0.00 0.00 33 1016.5
20260502210404 50 6 8.0 14.0 0.00 0.00 0.00 33 1016.5
20260502210204 50 11 7.0 14.0 0.00 0.00 0.00 34 1016.5
20260502210025 50 12 7.0 12.0 0.00 0.00 0.00 32 1016.5
20260502205825 51 12 7.0 16.0 0.00 0.00 0.00 35 1016.6
20260502205604 51 15 6.0 16.0 0.00 0.00 0.00 37 1016.7
20260502205404 51 31 5.0 16.0 0.00 0.00 0.00 35 1016.6
20260502205204 51 31 5.0 16.0 0.00 0.00 0.00 33 1016.6
20260502205004 51 38 5.0 16.0 0.00 0.00 0.00 32 1016.6
20260502204804 50 45 5.0 12.0 0.00 0.00 0.00 32 1016.7
20260502204625 50 52 5.0 12.0 0.00 0.00 0.00 30 1016.7
20260502204425 50 41 5.0 14.0 0.00 0.00 0.00 32 1016.7
20260502204204 50 39 5.0 14.0 0.00 0.00 0.00 36 1016.7
20260502204025 50 41 5.0 14.0 0.00 0.00 0.00 32 1016.7
20260502203804 50 60 5.0 14.0 0.00 0.00 0.00 31 1016.7
20260502203604 50 73 5.0 14.0 0.00 0.00 0.00 32 1016.8
20260502203204 50 68 6.0 11.0 0.00 0.00 0.00 30 1016.7
20260502203025 50 38 6.0 15.0 0.00 0.00 0.00 31 1016.8
20260502202804 50 16 6.0 15.0 0.00 0.00 0.00 31 1016.8
20260502202625 50 17 6.0 15.0 0.00 0.00 0.00 35 1016.8
20260502202404 50 34 7.0 15.0 0.00 0.00 0.00 32 1016.9
20260502202204 50 44 7.0 15.0 0.00 0.00 0.00 35 1016.9
20260502202004 50 72 6.0 12.0 0.00 0.00 0.00 33 1016.9
20260502201804 50 89 6.0 11.0 0.00 0.00 0.00 32 1016.7
20260502201604 50 82 6.0 11.0 0.00 0.00 0.00 36 1016.9
20260502201404 50 66 5.0 11.0 0.00 0.00 0.00 34 1016.9
20260502201204 50 57 5.0 10.0 0.00 0.00 0.00 30 1016.9
20260502201004 50 30 5.0 10.0 0.00 0.00 0.00 31 1017.0
20260502200825 50 17 5.0 10.0 0.00 0.00 0.00 34 1017.0
20260502200604 50 2 5.0 11.0 0.00 0.00 0.00 38 1017.0
20260502200404 50 360 6.0 11.0 0.00 0.00 0.00 33 1017.0
20260502200204 50 7 7.0 15.0 0.00 0.00 0.00 34 1017.1
20260502200004 50 10 7.0 15.0 0.00 0.00 0.00 34 1017.1
20260502195804 50 9 6.0 15.0 0.00 0.00 0.00 37 1017.1
20260502195604 50 20 6.0 15.0 0.00 0.00 0.00 32 1017.1
20260502195404 50 39 6.0 15.0 0.00 0.00 0.00 33 1017.2
20260502195204 49 58 6.0 12.0 0.00 0.00 0.00 40 1017.2
20260502195004 49 61 5.0 12.0 0.00 0.00 0.00 37 1017.3
20260502194803 48 60 6.0 12.0 0.00 0.00 0.00 34 1017.3
20260502194625 48 52 6.0 12.0 0.00 0.00 0.00 35 1017.4
20260502194425 49 50 5.0 12.0 0.00 0.00 0.00 35 1017.4
20260502194204 49 49 5.0 12.0 0.00 0.00 0.00 37 1017.4
20260502194004 49 43 5.0 12.0 0.00 0.00 0.00 34 1017.4
20260502193804 49 41 5.0 10.0 0.00 0.00 0.00 37 1017.4
20260502193604 49 42 5.0 10.0 0.00 0.00 0.00 37 1017.4
20260502193404 49 22 5.0 10.0 0.00 0.00 0.00 36 1017.4
20260502193225 49 10 6.0 11.0 0.00 0.00 0.00 36 1017.3
20260502193004 49 1 6.0 12.0 0.00 0.00 0.00 37 1017.4
20260502192804 49 5 6.0 12.0 0.00 0.00 0.00 36 1017.5
20260502192625 48 5 6.0 12.0 0.00 0.00 0.00 36 1017.5
20260502192404 48 17 5.0 12.0 0.00 0.00 0.00 36 1017.5
20260502192204 48 21 5.0 13.0 0.00 0.00 0.00 39 1017.6
20260502192004 48 23 5.0 13.0 0.00 0.00 0.00 36 1017.6
20260502191804 48 38 5.0 13.0 0.00 0.00 0.00 37 1017.6
20260502191625 48 51 5.0 13.0 0.00 0.00 0.00 39 1017.6
20260502191404 48 45 6.0 13.0 0.00 0.00 0.00 39 1017.6
20260502191204 48 67 5.0 10.0 0.00 0.00 0.00 40 1017.6
20260502191025 47 86 5.0 12.0 0.00 0.00 0.00 35 1017.6
20260502190825 47 81 5.0 12.0 0.00 0.00 0.00 34 1017.6
20260502190604 47 75 5.0 12.0 0.00 0.00 0.00 38 1017.7
20260502190425 47 81 5.0 12.0 0.00 0.00 0.00 38 1017.6
20260502190204 47 76 5.0 12.0 0.00 0.00 0.00 34 1017.6
20260502190004 47 66 4.0 10.0 0.00 0.00 0.00 37 1017.7